Voltar ao catálogo

SL-8 R/B

AtivoLEO
NORAD 5685·ROCKET BODY·🇷🇺 Russia

Lançado Dec 15, 1971 de Plesetsk Cosmodrome

Loading…

Próximas Passagens (próximas 24 horas)

TLE

AtualizadoSource: Space-Track

Época: Sep 14, 2026, 15:02 UTC

1 05685U 71111B   26257.62668924  .00000061  00000-0  84647-4 0  9990
2 05685  74.0284  37.5159 0022222  92.4141 278.6094 13.77144586750028

Acompanhe SL-8 R/B em tempo real com AllMySat

Download on the App Store